ARIANE 3 DEB, 27026

Orbit data source: Space-Track

ARIANE 3 DEB, 27026 is space debris in HEO originally from a launch on Thu, 08 Sep 1988 UTC launched from the French Guiana (FRGUI). Debris objects in space refer to the collection of defunct objects orbiting the Earth. Examples of debris include non-operational satellites, rocket bodies, and fragments generated from explosions, collisions, or faulty payload assembly.

Loading next visibility...
Identifier
27026, 1988-081J
Orbit
HEO
Country
Flag of FRFR
Related business
Manufacturer
Unknown
Mission
Spacecraft
Bus & Motor
Unknown
Mass
Unknown
Launch date (UTC)
1988-09-08 (38 years ago)
Launch vehicle
Unknown
Launch site
French Guiana (FRGUI)
Object type
Payload
Rocket body
Debris
Shape & HBR
Unknown shape, 1.1 m
Radar Cross Section
Medium (>0.1 m² and <1 m²)

Expand to show TLE details & history
Last TLE update: 19 hours ago

TLE from 19 hours ago
0 ARIANE 3 DEB
1 27026U 88081J   26123.62214992  .00002345  00000-0  11388-1 0  9997
2 27026   7.2675 201.8481 7127139 239.3081 106.6884  2.35967029265353
Epoch: 2026-05-03T14:55Z
TLE epoch observation values (Epoch: 2026-05-03T14:55:53.753Z)
Latitude
4.66987°
Longitude
156.31698°
Altitude
29,565.822 km
Speed
2.335 km/s
True Right ascension
16h 07m 15s
True Declination
4° 39' 52"
Sunlit
Object was in daylight at epoch
Visualization orbit readout
Latitude
Unknown
Longitude
Unknown
Altitude
Unknown
Speed
Unknown
Apparent Right ascension
Unknown
Apparent Declination
Unknown
Sunlit
N/A
Visualization observer readout
Local Sidereal Time
17:42:32
Azimuth
Unknown
Elevation
Unknown
Doppler factor
Unknown
Orbital elements
Apogee altitude
34,448.908 km
Perigee altitude
470.084 km
Semi-major axis
23,837.633 km
Eccentricity
0.71271
Inclination
7.2675°
RAAN
201.8481°
Arg. of periapsis
239.3081°
True anomaly
160.91789°
Mean anomaly
106.6884°
Eccentric anomaly
135.37424°
Mean motion
0.58972 °/min
Orbital period
610.46 mins
BSTAR
0.011388
Loading maneuver chart data...
Computing Atmospheric mass density...
Loading historical data...
Loading historical data...
Loading historical data...
Loading historical data...
Loading historical data...
Loading historical data...
Loading historical data...

Documentation

Showing up to 5 results
|